STARLINK-11475, 62226

Orbit data source: Space-Track

STARLINK-11475, 62226 is a payload satellite owned by SpaceX/Seattle (US) in LEO that was launched on Thu, 05 Dec 2024 UTC via an FALCON 9 launch vehicle from the Air Force Western Test Range (AFWTR). Payload-class satellites include a variety of spacecraft equipped with specific instruments for various scientific and technological missions. These include communications satellites like Starlink; space stations such as the ISS; scientific satellites like the Hubble; Earth observation satellites from companies like Planet Labs, Umbra, and HawkEye 360; GPS; miniature CubeSats for education and research; and military/defense satellites.

Loading next visibility...
Identifier
62226, 2024-231J
Orbit
LEO
Country
Flag of USUS
Related business
Manufacturer
SpaceX/Seattle
Mission
Operational Commercial Communications
Bus & Motor
STARLINK V2MD, Unknown motor
Mass
960 kg wet, ~910 kg dry
Launch date (UTC)
2024-12-05 (2 years ago)
Launch vehicle
FALCON 9
Launch site
Air Force Western Test Range (AFWTR)
Object type
Payload
Rocket body
Debris
Shape & HBR
Box + 2 Pan, 18.1 m
Radar Cross Section
36.964 m², Large (>1 m²)

Expand to show TLE details & history
Last TLE update: 12 hours ago

TLE from 12 hours ago
0 STARLINK-11475
1 62226U 24231J   26256.70515409  .00102856  00000-0  84295-3 0  9995
2 62226  53.1575 254.2536 0001270  91.6800 268.4363 15.69721237102948
Epoch: 2026-09-13T16:55Z
TLE epoch observation values (Epoch: 2026-09-13T16:55:25.313Z)
Latitude
-0.00005°
Longitude
7.70212°
Altitude
360.633 km
Speed
7.694 km/s
True Right ascension
16h 57m 00s
True Declination
0° 00' 00"
Sunlit
Object was in daylight at epoch
Visualization orbit readout
Latitude
Unknown
Longitude
Unknown
Altitude
Unknown
Speed
Unknown
Apparent Right ascension
Unknown
Apparent Declination
Unknown
Sunlit
N/A
Visualization observer readout
Local Sidereal Time
21:04:00
Azimuth
Unknown
Elevation
Unknown
Doppler factor
Unknown
Orbital elements
Apogee altitude
360.811 km
Perigee altitude
359.1 km
Semi-major axis
6,738.093 km
Eccentricity
0.00013
Inclination
53.1575°
RAAN
254.2536°
Arg. of periapsis
91.68°
True anomaly
268.42175°
Mean anomaly
268.4363°
Eccentric anomaly
268.42903°
Mean motion
3.92408 °/min
Orbital period
91.74 mins
BSTAR
0.00084295
Loading maneuver chart data...
Computing Atmospheric mass density...
Loading historical data...
Loading historical data...
Loading historical data...
Loading historical data...
Loading historical data...
Loading historical data...
Loading historical data...

Documentation

Showing up to 5 results
|